Regional Weather Roundup
Issued by NWS Midland/Odessa, TX

Skip options and go directly to product.
Home | Oldest Version | Next Version | Current Version | All | Text Only | Save Text | Print | Product List | Glossary On

Skip product version selection by date and time.   
615
ASUS44 KMAF 211901
RWRMAF
MIDLAND AREA WEATHER ROUNDUP
NATIONAL WEATHER SERVICE MIDLAND TX
200 PM CDT THU MAY 21 2015

...IN SOUTHWEST TEXAS AND SOUTHEAST NEW MEXICO...

CITY           SKY/WX    TMP DP  RH WIND       PRES   REMARKS
ALPINE         CLOUDY    55  55  97 NE9       30.25R
ANDREWS        CLOUDY    52  48  87 E15       30.24S
ARTESIA        CLOUDY    54  52  94 E9        30.23F
BIG SPRING     CLOUDY    59  51  76 NE16G23   30.25F
CARLSBAD       LGT RAIN  54  52  93 E9        30.21F FOG
DRYDEN           N/A     66  57  72 NE12G18   30.13S
FORT STOCKTON  CLOUDY    56  53  90 E9        30.19S
GUAD PASS      LGT RAIN  50  32  50 NE31      30.18S
HOBBS          CLOUDY    48  48 100 NE13G21   30.25S
MARFA          CLOUDY    64  55  72 NE12      30.19S
MIDLAND AIRPK  CLOUDY    55  49  80 E12G17    30.23F
MIDLAND INTL   CLOUDY    55  49  80 E15       30.21F
ODESSA         CLOUDY    55  48  77 E15       30.22F
PECOS          CLOUDY    56  51  85 E8        30.21S
PRESIDIO       FAIR      82  59  46 MISG      30.02F
SEMINOLE       CLOUDY    51  49  93 E12       30.25S
SNYDER         CLOUDY    55  47  74 NE14      30.25F
WINK           CLOUDY    57  47  69 NE9       30.20S
$$
...OTHER STATIONS IN TEXAS...

CITY           SKY/WX    TMP DP  RH WIND       PRES   REMARKS
ABILENE        CLOUDY    60  51  72 NE7       30.23F
AMARILLO       CLOUDY    54  44  69 E7        30.26F
AUSTIN         CLOUDY    69  61  75 N18       30.11F
BROWNSVILLE    LGT RAIN  80  77  90 NW8       30.02R FOG
CORPUS CHRISTI CLOUDY    83  74  74 E10       29.96R
DALLAS FTW     CLOUDY    60  54  80 N15       30.19F
DEL RIO        CLOUDY    75  63  66 NE9       30.07S
EL PASO        PTSUNNY   72  52  49 E17       30.06F
HOUSTON INT    CLOUDY    77  72  84 NE13      30.05S
LUBBOCK        CLOUDY    53  45  74 E9        30.25F
SAN ANGELO     CLOUDY    59  54  83 NE10      30.20S
SAN ANTONIO    CLOUDY    75  63  66 NE15G24   30.09F
WACO           LGT RAIN  62  55  77 NE14      30.18S
WICHITA FALLS  NOT AVBL
$$
...OTHER LOCATIONS IN NEW MEXICO...

CITY           SKY/WX    TMP DP  RH WIND       PRES   REMARKS
ALAMAGORDO     CLOUDY    72  50  46 E5        30.07F
ALBUQUERQUE    CLOUDY    63  43  48 E18G29    30.13F
CANNON AFB     TSTM      46  45  97 E9        30.26F FOG
CLOVIS         CLOUDY    46  41  81 E5        30.28S THUNDER
HOLLOMAN AFB   CLOUDY    74  51  44 S16       30.04F
ROSWELL        LGT RAIN  53  50  89 E10       30.22F FOG
RUIDOSO        CLOUDY    46  46 100 SE10      30.27F FOG
SANTA FE       CLOUDY    55  42  61 SE24      30.22R
TRUTH OR CONSE MOSUNNY   74  51  44 SE12G21   30.04F
TUCUMCARI      CLOUDY    51  43  74 E10       30.24F
$$

USA.gov is the U.S. government's official web portal to all federal, state and local government web resources and services.